Wind_Speed
13 13 13 12 12 11 11 11 11 11 11 11 10 10 9 9 9 8 8 8 7 7 6 6 5 4 4 4 4 4 4 3 4 4 4 4 4 4 4 4 4 3 3
13 14 14 14 14 13 12 12 12 12 12 12 12 11 11 10 10 10 9 9 8 8 8 7 7 6 5 5 5 5 5 5 4 4 4 4 5 5 5 5 5 4 4
14 14 15 15 15 15 14 13 13 14 14 14 13 13 12 12 12 11 11 10 10 9 9 8 8 7 7 7 7 7 6 6 6 6 6 6 6 6 6 6 6 6 6
16 16 16 16 16 16 16 16 15 15 15 15 15 14 14 13 13 12 12 12 11 11 10 10 9 9 8 8 8 8 8 8 8 8 8 8 7 7 8 8 8 8 8
17 17 17 17 17 17 18 18 18 17 16 17 16 15 15 15 14 14 14 13 13 12 12 12 11 11 10 10 10 10 10 10 10 9 9 9 9 9 9 9 10 9 9
19 19 19 19 19 19 19 20 20 19 19 18 18 17 17 17 16 16 15 15 15 14 13 13 13 12 12 12 12 12 12 11 11 11 11 11 11 11 11 11 11 11 10
21 21 21 21 21 21 21 22 22 22 21 20 20 19 19 18 18 18 17 16 16 16 15 15 15 14 14 13 13 14 14 13 13 13 13 13 13 13 13 13 13 13 13
23 23 23 23 23 23 23 23 23 24 23 22 21 21 21 20 20 19 19 18 18 18 17 17 17 16 16 15 15 15 16 15 15 15 15 15 15 15 15 15 15 15 15
24 25 25 24 24 24 25 25 25 25 25 25 24 24 23 22 22 21 21 21 20 20 19 19 19 19 18 18 17 17 17 17 17 17 17 17 17 17 17 16 16 17 17
25 26 26 26 26 26 26 26 26 26 26 26 26 25 25 24 24 23 23 22 22 22 22 21 21 20 20 20 19 19 18 19 18 18 18 18 18 18 18 18 19 19 19
27 27 27 28 28 28 28 27 27 28 29 28 28 27 26 26 25 25 25 24 24 23 23 23 23 22 22 22 21 21 21 20 21 20 20 20 20 20 19 20 21 21 21
28 28 29 29 30 30 30 30 29 29 29 29 29 29 29 28 27 27 27 26 25 25 25 24 24 24 24 24 23 23 23 22 22 22 22 22 22 22 21 21 22 23 23
31 31 30 30 31 32 32 32 32 31 31 31 31 31 30 30 29 29 28 27 27 27 27 26 26 26 25 25 25 25 25 24 24 24 24 24 24 24 24 24 24 25 25
32 32 33 32 33 33 34 34 34 34 34 34 33 33 33 32 32 31 30 29 29 29 28 28 28 28 27 27 27 26 27 27 27 26 26 26 26 27 27 27 26 27 27
34 34 34 34 34 34 35 36 36 36 36 36 36 36 35 35 35 34 33 31 31 30 30 29 29 29 29 29 29 29 29 29 29 28 28 28 29 29 29 28 28 28 28
35 35 35 35 35 35 35 35 36 37 37 38 38 37 37 36 36 36 34 33 33 32 32 31 31 30 31 31 31 31 31 31 31 31 31 31 31 31 31 30 30 30 30
36 36 36 36 36 36 36 36 36 37 37 38 38 38 38 37 37 36 35 35 34 34 34 33 33 32 32 32 33 33 33 33 33 33 33 32 32 33 32 32 32 32 31
36 36 36 37 37 37 36 36 36 36 37 38 38 38 38 38 38 37 36 36 35 35 35 35 34 34 33 33 33 34 34 34 34 34 35 34 34 34 34 34 34 34 34
37 36 36 36 37 37 37 38 37 36 36 37 38 38 39 39 39 38 37 36 36 36 36 36 36 35 34 34 34 35 35 35 35 35 35 35 35 34 34 34 34 34 35
37 37 36 37 37 37 37 36 36 35 36 36 36 36 38 38 38 38 38 37 37 36 36 36 36 34 35 35 35 36 35 35 35 36 36 36 36 35 35 36 36 36 37
37 37 36 36 36 36 36 35 35 34 34 35 35 35 36 36 37 36 36 37 37 37 38 38 37 37 36 36 37 37 37 36 37 36 36 37 37 37 37 37 38 38 38
37 36 36 36 36 35 35 35 35 34 33 33 35 36 36 36 35 35 36 37 37 37 38 38 38 38 38 38 38 39 39 38 38 37 37 38 39 39 39 39 39 39 40
35 36 36 34 34 34 35 35 36 36 35 34 34 35 36 37 36 36 36 37 36 37 37 37 38 38 39 39 39 39 39 39 38 38 39 40 40 40 40 40 40 41 41
34 35 36 35 34 33 33 34 35 35 34 34 34 34 35 36 36 36 37 36 37 37 37 38 39 39 39 40 40 40 41 41 40 39 40 41 41 42 42 42 42 42 42
33 33 34 35 35 34 33 33 33 34 34 34 34 34 35 36 36 36 36 36 37 38 39 39 39 39 39 40 40 40 41 41 42 42 41 41 42 42 43 43 43 43 43
32 32 33 34 35 34 34 34 33 33 33 34 34 35 35 36 36 37 37 37 37 38 38 38 39 40 40 40 41 42 42 42 42 42 42 42 42 42 43 43 44 44 44
Wind_Direction
245 242 241 240 240 242 243 247 247 244 246 246 243 244 245 246 247 248 247 245 245 245 242 242 239 237 234 233 229 222 217 212 200 201 203 206 211 205 198 201 202 208 215
246 243 242 241 240 241 243 247 247 247 247 247 242 242 245 247 248 250 251 249 249 249 246 244 241 242 241 239 238 232 230 230 225 215 219 225 224 223 223 224 229 235 238
248 246 244 242 242 241 242 245 247 250 250 248 245 243 244 248 251 251 252 251 252 253 252 249 247 247 246 247 245 241 240 243 242 242 243 245 240 240 239 239 243 246 247
248 247 246 246 245 244 244 245 246 248 251 249 246 244 243 248 251 252 254 254 254 255 255 253 251 252 251 250 249 245 245 248 251 255 257 259 257 254 247 244 248 253 255
247 245 246 246 247 246 245 246 247 248 250 249 246 246 245 248 251 252 253 255 255 256 256 253 253 253 253 252 253 250 250 251 254 258 260 262 264 263 259 254 255 258 261
250 248 247 248 248 248 247 246 248 249 249 250 249 249 249 250 251 252 253 255 255 256 254 253 253 254 255 256 255 255 254 253 256 259 259 260 263 265 263 260 260 261 261
250 251 251 250 250 249 248 248 248 249 250 251 250 251 251 252 253 253 254 256 257 256 255 254 253 254 255 257 257 259 258 257 258 261 261 262 264 264 264 263 263 262 263
251 251 253 254 253 250 249 249 248 249 250 250 250 251 251 252 252 254 255 255 256 257 257 256 254 254 254 255 257 260 261 261 262 263 264 265 266 265 263 263 262 261 262
252 252 253 256 254 251 249 249 249 249 250 252 252 252 252 252 253 253 254 255 256 257 258 257 256 255 255 256 257 259 262 263 263 265 266 266 267 267 265 264 263 263 264
253 253 254 255 253 251 251 250 249 250 251 252 252 252 252 252 252 253 254 255 255 256 257 257 256 256 256 257 258 259 262 264 264 265 267 267 268 268 268 267 267 265 265
254 254 255 256 254 252 252 252 252 251 251 251 252 251 250 251 252 252 253 255 255 255 255 256 256 257 258 258 259 260 261 264 264 265 266 267 267 267 268 269 268 267 266
253 254 255 255 253 251 251 252 252 252 251 251 251 252 252 251 251 252 253 255 255 254 255 255 256 257 258 260 261 262 262 263 264 264 266 267 267 267 268 268 268 268 268
253 254 255 254 252 252 252 252 252 252 252 251 251 251 252 252 252 252 252 254 254 254 255 255 256 257 259 261 262 262 263 264 266 266 266 267 268 269 269 269 269 269 269
255 256 256 255 254 253 254 254 254 253 252 251 251 250 251 251 251 252 252 253 254 254 255 256 256 257 259 261 262 263 263 264 265 266 266 267 268 269 270 271 270 270 270
255 256 256 256 254 253 254 254 254 253 252 251 251 251 251 251 251 251 252 252 254 254 255 256 257 258 259 260 261 262 263 264 265 266 266 267 267 268 270 271 271 271 271
256 257 255 255 254 253 253 254 254 253 253 251 250 250 250 251 251 251 251 252 253 254 254 256 257 259 260 259 260 262 263 264 265 266 266 267 268 268 270 270 270 271 272
256 256 255 254 254 254 253 254 254 253 252 251 250 250 250 250 251 251 251 251 252 254 255 256 258 259 260 260 261 262 263 263 265 265 266 267 268 268 269 269 270 271 272
257 256 255 254 254 253 253 254 254 253 252 251 250 250 249 249 250 250 250 251 252 254 255 257 259 259 260 260 261 263 263 264 264 265 266 267 268 268 269 269 270 272 274
258 256 256 255 254 253 253 253 254 253 251 250 250 249 248 248 249 249 250 250 252 253 255 257 258 258 259 260 261 263 264 264 264 265 266 267 268 269 270 270 271 273 274
257 256 256 256 254 253 252 252 252 252 251 250 249 248 247 246 247 248 248 249 250 253 254 256 257 258 259 259 261 262 263 263 265 266 266 267 268 269 270 271 271 273 274
257 255 254 255 254 253 252 251 251 251 252 250 248 248 248 246 247 248 248 249 250 252 255 256 257 259 260 261 261 262 263 264 265 267 267 267 268 269 270 271 271 273 273
256 253 253 253 252 252 251 249 249 250 250 250 249 248 248 247 249 249 248 250 251 253 255 257 258 259 259 261 263 263 263 264 264 266 267 268 269 269 270 271 272 272 274
256 253 251 251 252 251 250 248 247 247 249 249 249 248 248 248 248 250 250 251 252 254 255 258 259 260 260 262 263 264 264 264 264 266 268 269 270 270 270 271 272 272 274
255 253 251 251 252 252 251 249 248 247 248 248 249 249 248 248 249 251 252 253 254 255 256 258 260 261 262 263 264 264 265 266 265 266 269 270 270 270 270 271 272 273 274
254 253 253 251 251 252 252 250 248 248 249 250 251 251 250 249 250 250 252 253 255 256 258 260 261 260 262 263 265 266 266 267 266 266 268 270 270 271 270 271 272 273 274
254 253 252 251 251 251 251 250 249 249 250 250 252 252 251 250 250 251 251 253 255 257 259 261 261 261 262 264 266 267 268 268 268 269 270 270 270 271 271 271 272 273 274
Height
5846 5847 5847 5848 5849 5849 5850 5851 5851 5852 5852 5853 5854 5855 5855 5856 5856 5857 5857 5857 5858 5858 5858 5858 5858 5859 5859 5859 5859 5859 5859 5859 5859 5859 5859 5859 5859 5859 5859 5860 5860 5860 5860
5844 5844 5845 5846 5847 5848 5848 5849 5850 5850 5851 5851 5852 5853 5854 5854 5855 5855 5856 5856 5857 5857 5857 5857 5858 5858 5858 5858 5858 5858 5858 5858 5859 5859 5859 5859 5859 5859 5859 5859 5859 5859 5859
5841 5842 5843 5844 5844 5845 5846 5847 5848 5848 5849 5850 5851 5851 5852 5853 5853 5854 5854 5855 5855 5856 5856 5856 5857 5857 5857 5857 5857 5857 5858 5858 5858 5858 5858 5858 5858 5858 5858 5858 5858 5858 5858
5838 5839 5840 5841 5842 5843 5843 5845 5846 5846 5847 5847 5848 5849 5850 5851 5852 5852 5853 5853 5854 5854 5855 5855 5855 5855 5856 5856 5856 5856 5857 5857 5857 5857 5857 5857 5857 5857 5856 5856 5856 5856 5856
5834 5835 5837 5838 5839 5839 5840 5842 5843 5844 5844 5845 5846 5847 5848 5849 5849 5850 5851 5851 5852 5852 5853 5853 5853 5854 5854 5855 5855 5855 5855 5855 5855 5855 5855 5855 5855 5855 5855 5855 5855 5855 5855
5831 5832 5833 5834 5835 5836 5837 5838 5839 5841 5842 5843 5843 5844 5845 5846 5847 5848 5848 5849 5849 5850 5850 5851 5851 5852 5852 5853 5853 5853 5853 5853 5853 5853 5853 5853 5853 5853 5853 5853 5853 5852 5853
5827 5828 5829 5830 5831 5832 5833 5834 5836 5837 5838 5839 5840 5841 5842 5843 5844 5844 5845 5846 5847 5847 5848 5848 5849 5849 5850 5850 5850 5850 5850 5851 5851 5851 5851 5851 5851 5851 5850 5850 5850 5850 5850
5823 5824 5825 5826 5826 5827 5829 5830 5831 5833 5834 5835 5836 5837 5838 5839 5840 5841 5842 5843 5843 5844 5845 5845 5846 5846 5847 5847 5848 5847 5848 5848 5848 5848 5848 5848 5848 5848 5847 5847 5847 5847 5847
5818 5819 5820 5821 5822 5823 5824 5825 5826 5828 5829 5830 5832 5833 5834 5835 5836 5837 5838 5839 5840 5840 5841 5842 5842 5843 5844 5844 5844 5844 5844 5845 5845 5845 5845 5845 5844 5844 5844 5844 5844 5844 5844
5813 5814 5815 5816 5817 5818 5819 5820 5821 5823 5824 5825 5827 5828 5829 5831 5832 5833 5833 5834 5835 5836 5837 5838 5838 5839 5840 5840 5840 5841 5841 5841 5841 5841 5841 5841 5840 5840 5840 5840 5840 5840 5840
5808 5809 5809 5810 5811 5812 5813 5814 5816 5817 5818 5820 5821 5822 5824 5825 5826 5827 5828 5829 5830 5831 5832 5833 5834 5835 5835 5836 5836 5837 5837 5837 5837 5837 5837 5837 5836 5836 5836 5836 5835 5835 5835
5802 5802 5803 5804 5804 5805 5807 5808 5809 5811 5812 5813 5815 5816 5818 5819 5821 5822 5823 5824 5825 5826 5827 5828 5829 5830 5830 5831 5832 5832 5832 5832 5832 5832 5832 5832 5832 5832 5831 5831 5831 5831 5831
5795 5795 5796 5797 5797 5798 5800 5801 5802 5804 5805 5807 5809 5810 5812 5813 5815 5816 5817 5819 5820 5821 5822 5823 5824 5824 5825 5826 5826 5827 5827 5827 5827 5827 5827 5827 5827 5826 5826 5826 5826 5826 5825
5787 5788 5789 5789 5790 5791 5792 5793 5795 5796 5798 5800 5801 5803 5805 5806 5808 5809 5811 5812 5813 5815 5816 5817 5818 5818 5819 5820 5820 5821 5821 5821 5822 5822 5822 5821 5821 5821 5821 5820 5820 5820 5819
5779 5780 5781 5781 5782 5782 5783 5785 5786 5788 5790 5791 5793 5795 5797 5799 5801 5802 5804 5805 5807 5808 5809 5810 5811 5812 5813 5814 5814 5815 5815 5815 5815 5815 5815 5815 5815 5815 5814 5814 5814 5813 5813
5771 5772 5772 5773 5774 5774 5775 5776 5777 5779 5780 5782 5784 5786 5788 5790 5792 5794 5796 5798 5799 5801 5802 5803 5805 5806 5806 5807 5807 5808 5808 5809 5809 5809 5809 5808 5808 5808 5808 5807 5807 5807 5806
5762 5762 5763 5764 5765 5766 5766 5767 5769 5770 5771 5773 5775 5777 5780 5781 5783 5785 5787 5789 5791 5793 5794 5796 5797 5798 5799 5800 5800 5801 5801 5802 5802 5802 5802 5801 5801 5801 5801 5800 5800 5799 5799
5753 5753 5754 5755 5756 5757 5757 5758 5759 5761 5762 5764 5766 5768 5770 5772 5774 5776 5778 5781 5782 5784 5786 5788 5789 5790 5791 5792 5793 5793 5794 5794 5794 5794 5794 5794 5794 5793 5793 5793 5792 5792 5791
5743 5744 5745 5745 5746 5747 5748 5749 5750 5751 5753 5754 5756 5758 5760 5763 5765 5767 5770 5772 5774 5776 5778 5779 5781 5782 5783 5784 5785 5785 5786 5786 5786 5786 5786 5786 5786 5786 5785 5785 5784 5784 5783
5734 5735 5736 5737 5737 5738 5739 5739 5741 5742 5744 5745 5747 5749 5751 5753 5755 5758 5761 5763 5766 5767 5769 5771 5772 5773 5775 5776 5776 5777 5777 5778 5778 5778 5778 5778 5778 5777 5777 5777 5776 5775 5774
5724 5725 5726 5727 5728 5728 5729 5730 5732 5733 5734 5736 5738 5740 5742 5744 5747 5750 5752 5755 5757 5760 5761 5763 5764 5765 5766 5767 5768 5768 5769 5769 5770 5770 5769 5769 5769 5769 5768 5768 5767 5766 5765
5714 5715 5716 5717 5718 5719 5721 5722 5723 5725 5726 5728 5729 5731 5734 5736 5739 5742 5744 5747 5749 5751 5753 5754 5755 5757 5758 5758 5759 5760 5760 5761 5761 5761 5760 5760 5760 5760 5759 5758 5757 5756 5755
5704 5705 5707 5708 5709 5711 5712 5713 5714 5716 5718 5719 5721 5723 5726 5728 5731 5734 5736 5739 5741 5743 5744 5746 5747 5748 5749 5749 5750 5751 5751 5752 5752 5752 5751 5751 5750 5750 5749 5748 5747 5747 5745
5695 5696 5697 5699 5700 5702 5703 5704 5706 5708 5710 5712 5714 5715 5718 5720 5723 5726 5728 5730 5732 5734 5735 5737 5738 5739 5739 5740 5740 5741 5741 5742 5742 5743 5742 5741 5740 5739 5739 5738 5737 5736 5735
5686 5687 5688 5690 5692 5693 5695 5696 5698 5700 5702 5704 5705 5707 5710 5712 5715 5717 5719 5722 5724 5725 5726 5727 5728 5729 5730 5730 5730 5730 5731 5731 5731 5732 5732 5731 5730 5728 5728 5727 5726 5725 5724
5677 5678 5679 5681 5683 5685 5686 5688 5690 5692 5693 5695 5697 5700 5702 5704 5706 5708 5710 5712 5714 5715 5716 5717 5718 5719 5720 5720 5720 5720 5721 5721 5721 5721 5720 5720 5719 5718 5716 5715 5714 5713 5713